This is the latest recevied weather packets stored in our database for station/object K0QED. If no packets are shown the sender has not sent any weather packets the latest 10 day(s).
| Time | Temp. | Humidity | Pressure | Rain* | Wind** | Luminosity | Snow |
|---|---|---|---|---|---|---|---|
| 1777298591 | 6.67° C | 47% | 1012.1 hPa | 0 mm | - | 69 W/m² | - |
| 1777298287 | 6.67° C | 48% | 1012.1 hPa | 0 mm | - | 65 W/m² | - |
| 1777297982 | 6.11° C | 50% | 1012 hPa | 0 mm | - | 58 W/m² | - |
| 1777297679 | 5.56° C | 51% | 1011.7 hPa | 0 mm | - | 25 W/m² | - |
| 1777297377 | 5° C | 53% | 1011.7 hPa | 0 mm | - | 42 W/m² | - |
| 1777297073 | 5° C | 53% | 1011.7 hPa | 0 mm | - | 23 W/m² | - |
| 1777296770 | 4.44° C | 54% | 1011.6 hPa | 0 mm | - | 21 W/m² | - |
| 1777296465 | 4.44° C | 55% | 1011.6 hPa | 0 mm | - | 22 W/m² | - |
| 1777296162 | 3.89° C | 56% | 1011.9 hPa | 0 mm | - | 20 W/m² | - |
| 1777295858 | 3.89° C | 56% | 1011.2 hPa | 0 mm | - | 19 W/m² | - |
| 1777295556 | 3.33° C | 57% | 1011.5 hPa | 0 mm | - | 18 W/m² | - |
| 1777295253 | 3.33° C | 58% | 1011.5 hPa | 0 mm | - | 17 W/m² | - |
| 1777294951 | 2.78° C | 59% | 1011.7 hPa | 0 mm | - | 16 W/m² | - |
| 1777294646 | 2.78° C | 59% | 1011.2 hPa | 0 mm | - | 15 W/m² | - |
| 1777294342 | 2.22° C | 60% | 1011.1 hPa | 0 mm | - | 16 W/m² | - |
| 1777294039 | 1.67° C | 62% | 1011 hPa | 0 mm | - | 14 W/m² | - |
| 1777293736 | 1.67° C | 62% | 1011.1 hPa | 0 mm | - | 12 W/m² | - |
| 1777293431 | 1.67° C | 62% | 1010.9 hPa | 0 mm | - | 11 W/m² | - |
| 1777293128 | 1.67° C | 61% | 1010.9 hPa | 0 mm | - | 9 W/m² | - |
| 1777292826 | 1.67° C | 61% | 1010.9 hPa | 0 mm | - | 7 W/m² | - |
| 1777292522 | 1.67° C | 61% | 1010.7 hPa | 0 mm | - | 6 W/m² | - |
| 1777292218 | 1.67° C | 61% | 1010.5 hPa | 0 mm | - | 3 W/m² | - |
| 1777291914 | 1.67° C | 61% | 1010.5 hPa | 0 mm | - | 2 W/m² | - |
| 1777291611 | 1.67° C | 61% | 1010.4 hPa | 0 mm | - | 0 W/m² | - |
| 1777291308 | 1.67° C | 62% | 1010.7 hPa | 0 mm | - | 0 W/m² | - |
* Rain latest hour (hover to see other rain measurements)
** Current wind speed in m/s (hover to see current wind gust speed)